This demonstration page uses our WeatherBlox Daily Observations layout. Learn more.

Left ArrowRight Arrow

Hourly Observations for February 20, 2017

Temp ( °F °C ) Dew Point ( °F °C ) Humidity (%) Winds ( mph kmh ) Pressure ( in mb ) Visibility ( mi km ) Precip ( " mm )
12:53 am 00:53 Partly Cloudy 34 1.1 30 -1.1 85 85 SW 10 17 29.69 1005 10 16 0.00 0.00
1:53 am 01:53 Clear 35 1.7 31 -0.6 85 85 SW 12 19 29.69 1005 10 16 0.00 0.00
2:53 am 02:53 Clear 34 1.1 31 -0.6 89 89 SW 17 28 29.70 1006 10 16 0.00 0.00
3:53 am 03:53 Clear 33 0.6 29 -1.7 85 85 SW 15 24 29.72 1006 10 16 0.00 0.00
4:53 am 04:53 Clear 34 1.1 27 -2.8 76 76 SSW 12 19 29.75 1008 10 16 0.00 0.00
5:53 am 05:53 Clear 32 0 27 -2.8 82 82 SSW 15 24 29.77 1008 10 16 0.00 0.00
6:53 am 06:53 Clear 30 -1.1 26 -3.3 85 85 SSW 12 19 29.77 1008 10 16 0.00 0.00
7:53 am 07:53 Sunny 33 0.6 27 -2.8 78 78 SW 12 19 29.77 1008 10 16 0.00 0.00
8:53 am 08:53 Sunny 39 3.9 29 -1.7 67 67 SW 12 19 29.76 1008 10 16 0.00 0.00
9:53 am 09:53 Sunny 43 6.1 28 -2.2 56 56 SW 14 22 29.73 1007 10 16 0.00 0.00
10:53 am 10:53 Sunny 46 7.8 26 -3.3 46 46 W 10 17 29.71 1006 10 16 0.00 0.00
11:53 am 11:53 Sunny 48 8.9 24 -4.4 39 39 WSW 12 19 29.67 1005 10 16 0.00 0.00
12:53 pm 12:53 Cloudy 48 8.9 26 -3.3 42 42 SW 6 9 29.65 1004 10 16 0.00 0.00
1:53 pm 13:53 Cloudy 50 10 23 -5 35 35 SW 3 6 29.61 1003 10 16 0.00 0.00
2:53 pm 14:53 Cloudy 49 9.4 27 -2.8 43 43 ENE 9 15 29.59 1002 10 16 0.00 0.00
3:53 pm 15:53 Cloudy 48 8.9 27 -2.8 44 44 ENE 9 15 29.58 1002 10 16 0.00 0.00
4:53 pm 16:53 Cloudy 48 8.9 27 -2.8 44 44 Calm 29.61 1003 10 16 0.00 0.00
5:53 pm 17:53 Mostly Cloudy 43 6.1 37 2.8 80 80 SW 12 19 29.61 1003 10 16 0.00 0.03
6:53 pm 18:53 Clear 39 3.9 35 1.7 86 86 SW 9 15 29.62 1003 10 16 0.00 0.00
7:53 pm 19:53 Clear 37 2.8 35 1.7 93 93 SSW 12 19 29.63 1003 10 16 0.00 0.00
8:53 pm 20:53 Mostly Cloudy 43 6.1 37 2.8 80 80 SW 13 20 29.62 1003 10 16 0.00 0.00
9:53 pm 21:53 Mostly Cloudy 41 5 36 2.2 82 82 WSW 10 17 29.63 1003 10 16 0.00 0.00
10:53 pm 22:53 Clear 37 2.8 34 1.1 89 89 SW 8 13 29.63 1003 10 16 0.00 0.00
11:53 pm 23:53 Clear 37 2.8 33 0.6 86 86 SW 14 22 29.63 1003 10 16 0.00 0.00

Powered by AerisWeather